contact:dominique.lefevre@mio.osupytheas.fr, maurice.libes@osupytheas.fr, didier.mallarino@osupytheas.fr
Project:EMSO http://www.emso-fr.org/EMSO-France
Depth: 2436.0 m
Title:EMSO Ligure Ouest : Data MII capteur AQUADOPP
Date,Latitude,Longitude,X_East,Y_North,Z_Up,Amplitude_X,Amplitude_Y,Amplitude_Z,Batterie,SoundSpeed,Heading,Pitch,Roll,Pressure,TIS,Speed,Direction
, degrees North, degrees East, m.s-1, m.s-1,m.s-1, 1, 1, 1, Volt, m.s-1, degree, degree, degree, dbar, degree_C, m.s-1, degree
2020-10-12T00:04:03,42.805,6.029,0.005,-0.005,0.008,102.0,106.0,99.0,13.4,1505.2,325.6,-0.7,1.8,2470.474,13.3,0.007,135.0
2020-10-12T00:10:03,42.805,6.029,-0.008,-0.003,0.004,102.0,106.0,100.0,13.4,1505.2,324.2,-0.8,1.8,2470.533,13.3,0.008,249.4
2020-10-12T00:13:03,42.805,6.029,0.015,0.019,0.0,102.0,105.0,99.0,13.4,1505.3,327.6,-0.7,1.8,2470.497,13.31,0.024,38.3
2020-10-12T00:16:03,42.805,6.029,0.021,0.006,0.01,101.0,107.0,99.0,13.4,1505.3,326.6,-0.7,1.9,2470.47,13.31,0.021,74.1
2020-10-12T00:19:03,42.805,6.029,0.055,0.002,0.014,100.0,105.0,100.0,13.4,1505.3,323.0,-0.7,1.8,2470.447,13.32,0.055,87.9
2020-10-12T00:22:03,42.805,6.029,0.068,-0.013,-0.004,101.0,106.0,99.0,13.4,1505.3,327.1,-0.7,1.8,2470.447,13.32,0.069,100.8
2020-10-12T00:25:03,42.805,6.029,0.032,-0.008,0.011,102.0,105.0,100.0,13.4,1505.3,325.7,-0.7,1.8,2470.407,13.32,0.032,104.0
2020-10-12T00:28:03,42.805,6.029,0.042,0.003,-0.001,100.0,106.0,99.0,13.3,1505.3,324.3,-0.7,1.9,2470.438,13.32,0.042,85.9
2020-10-12T00:31:03,42.805,6.029,-0.015,-0.009,-0.022,103.0,106.0,99.0,13.3,1505.3,327.1,-0.7,1.8,2470.418,13.32,0.017,239.0
2020-10-12T00:34:03,42.805,6.029,0.021,-0.004,-0.001,102.0,106.0,100.0,13.4,1505.3,327.4,-0.7,1.8,2470.426,13.32,0.021,100.8
2020-10-12T00:37:03,42.805,6.029,0.014,-0.001,-0.008,102.0,106.0,100.0,13.3,1505.3,327.9,-0.7,1.8,2470.447,13.33,0.014,94.1
2020-10-12T00:40:03,42.805,6.029,0.037,0.004,0.033,101.0,105.0,100.0,13.4,1505.3,328.3,-0.7,1.8,2470.406,13.33,0.037,83.8
2020-10-12T00:43:03,42.805,6.029,0.033,-0.015,-0.003,102.0,105.0,99.0,13.4,1505.3,326.3,-0.7,1.8,2470.413,13.33,0.036,114.4
2020-10-12T00:46:03,42.805,6.029,0.0,0.001,-0.05,103.0,105.0,100.0,13.4,1505.3,324.7,-0.7,1.8,2470.387,13.33,0.001,0.0
2020-10-12T00:49:03,42.805,6.029,0.028,0.004,0.03,101.0,106.0,100.0,13.4,1505.3,326.6,-0.7,1.8,2470.411,13.33,0.028,81.9
2020-10-12T00:52:03,42.805,6.029,0.041,0.009,0.017,101.0,106.0,99.0,13.4,1505.3,326.9,-0.7,1.8,2470.37,13.33,0.041,77.6
2020-10-12T00:55:03,42.805,6.029,0.037,0.011,0.013,102.0,106.0,100.0,13.4,1505.3,324.0,-0.7,1.8,2470.373,13.33,0.038,73.4
2020-10-12T00:58:03,42.805,6.029,0.026,0.004,0.011,101.0,107.0,100.0,13.4,1505.3,326.5,-0.7,1.8,2470.419,13.33,0.026,81.3
2020-10-12T01:04:03,42.805,6.029,0.016,-0.028,0.003,103.0,109.0,101.0,13.4,1505.3,327.7,-0.8,1.8,2470.449,13.31,0.032,150.3
2020-10-12T01:07:03,42.805,6.029,0.053,0.001,0.039,102.0,106.0,99.0,13.4,1505.3,325.1,-0.7,1.8,2470.466,13.31,0.053,88.9
2020-10-12T01:10:03,42.805,6.029,0.026,0.003,0.04,102.0,108.0,100.0,13.4,1505.3,327.6,-0.7,1.9,2470.404,13.32,0.026,83.4
2020-10-12T01:13:03,42.805,6.029,0.043,0.002,0.011,102.0,106.0,101.0,13.4,1505.3,323.4,-0.7,1.8,2470.411,13.32,0.043,87.3
2020-10-12T01:16:03,42.805,6.029,0.051,0.013,0.059,102.0,107.0,100.0,13.3,1505.3,326.7,-0.7,1.8,2470.402,13.32,0.052,75.7
2020-10-12T01:19:03,42.805,6.029,0.014,0.005,0.003,103.0,107.0,100.0,13.4,1505.3,325.0,-0.7,1.8,2470.389,13.32,0.014,70.4
2020-10-12T01:22:03,42.805,6.029,0.028,-0.006,0.014,102.0,109.0,99.0,13.4,1505.3,327.4,-0.7,1.8,2470.438,13.32,0.028,102.1
2020-10-12T01:25:03,42.805,6.029,0.075,0.013,0.056,102.0,106.0,100.0,13.3,1505.3,326.2,-0.7,1.8,2470.367,13.32,0.076,80.2
2020-10-12T01:28:03,42.805,6.029,0.012,0.004,0.017,103.0,109.0,100.0,13.3,1505.3,325.3,-0.7,1.8,2470.448,13.32,0.012,71.6
2020-10-12T01:31:03,42.805,6.029,0.023,0.003,0.007,102.0,109.0,100.0,13.4,1505.3,323.4,-0.7,1.8,2470.371,13.32,0.023,82.6
2020-10-12T01:34:03,42.805,6.029,0.03,0.003,-0.011,103.0,108.0,101.0,13.3,1505.3,327.7,-0.7,1.9,2470.428,13.32,0.03,84.3
2020-10-12T01:37:03,42.805,6.029,0.022,-0.001,0.014,101.0,108.0,100.0,13.4,1505.3,323.5,-0.7,1.9,2470.432,13.32,0.022,92.6
2020-10-12T01:40:03,42.805,6.029,0.006,0.009,0.007,102.0,108.0,100.0,13.4,1505.3,325.4,-0.7,1.9,2470.397,13.32,0.01,33.7
2020-10-12T01:43:03,42.805,6.029,0.045,0.013,0.023,102.0,108.0,100.0,13.3,1505.3,324.9,-0.7,1.8,2470.386,13.32,0.046,73.9
2020-10-12T01:46:03,42.805,6.029,0.022,-0.001,0.007,102.0,109.0,100.0,13.4,1505.3,327.6,-0.7,1.8,2470.382,13.32,0.022,92.6
2020-10-12T01:49:03,42.805,6.029,-0.001,0.016,-0.022,101.0,109.0,100.0,13.3,1505.3,325.8,-0.7,1.9,2470.433,13.32,0.016,356.4
2020-10-12T01:52:03,42.805,6.029,0.028,-0.001,0.001,102.0,108.0,99.0,13.4,1505.3,324.7,-0.7,1.8,2470.423,13.32,0.028,92.0
2020-10-12T01:55:03,42.805,6.029,0.029,0.01,0.017,102.0,108.0,98.0,13.4,1505.3,325.4,-0.7,1.8,2470.391,13.32,0.03,71.0
2020-10-12T01:58:03,42.805,6.029,0.03,-0.001,0.031,103.0,109.0,99.0,13.4,1505.3,326.0,-0.7,1.8,2470.405,13.32,0.03,91.9
2020-10-12T02:04:03,42.805,6.029,0.032,0.002,0.012,101.0,107.0,100.0,13.4,1505.2,324.1,-0.7,1.8,2470.411,13.3,0.032,86.4
2020-10-12T02:07:03,42.805,6.029,0.022,-0.014,-0.013,101.0,108.0,99.0,13.4,1505.3,323.7,-0.7,1.8,2470.455,13.31,0.026,122.5
2020-10-12T02:10:03,42.805,6.029,0.021,-0.002,-0.001,102.0,109.0,100.0,13.4,1505.3,325.2,-0.7,1.8,2470.452,13.32,0.021,95.4
2020-10-12T02:13:03,42.805,6.029,0.023,0.0,-0.023,100.0,109.0,100.0,13.4,1505.3,323.4,-0.7,1.9,2470.419,13.32,0.023,90.0
2020-10-12T02:16:03,42.805,6.029,0.021,0.004,0.007,101.0,109.0,100.0,13.4,1505.3,324.8,-0.7,1.8,2470.45,13.32,0.021,79.2
2020-10-12T02:19:03,42.805,6.029,0.029,-0.005,0.023,102.0,107.0,100.0,13.4,1505.3,328.2,-0.7,1.8,2470.432,13.32,0.029,99.8
2020-10-12T02:22:03,42.805,6.029,0.011,-0.009,-0.003,101.0,108.0,100.0,13.4,1505.3,323.2,-0.7,1.9,2470.424,13.32,0.014,129.3
2020-10-12T02:25:03,42.805,6.029,0.013,-0.008,0.015,100.0,108.0,100.0,13.4,1505.3,326.0,-0.7,1.8,2470.408,13.32,0.015,121.6
2020-10-12T02:28:03,42.805,6.029,0.03,-0.009,0.02,100.0,107.0,101.0,13.4,1505.3,328.4,-0.7,1.8,2470.401,13.32,0.031,106.7
2020-10-12T02:31:03,42.805,6.029,0.045,-0.012,0.0,102.0,108.0,99.0,13.4,1505.3,323.0,-0.7,1.8,2470.43,13.32,0.046,104.9
2020-10-12T02:34:03,42.805,6.029,0.043,-0.015,0.016,102.0,108.0,99.0,13.3,1505.3,326.0,-0.7,1.8,2470.403,13.33,0.045,109.2
2020-10-12T02:37:03,42.805,6.029,0.05,-0.001,0.016,101.0,107.0,100.0,13.4,1505.3,327.1,-0.7,1.8,2470.43,13.33,0.05,91.1
2020-10-12T02:40:03,42.805,6.029,0.002,-0.003,0.0,102.0,105.0,100.0,13.4,1505.3,324.5,-0.7,1.9,2470.431,13.33,0.003,146.3
2020-10-12T02:43:03,42.805,6.029,0.057,-0.011,0.046,101.0,106.0,100.0,13.4,1505.3,323.0,-0.7,1.8,2470.389,13.33,0.058,100.9
2020-10-12T02:46:03,42.805,6.029,0.053,-0.003,0.025,104.0,107.0,99.0,13.4,1505.3,324.5,-0.7,1.8,2470.402,13.33,0.053,93.2
2020-10-12T02:49:03,42.805,6.029,0.018,0.005,-0.01,102.0,105.0,100.0,13.4,1505.3,325.3,-0.7,1.8,2470.418,13.33,0.018,74.5
2020-10-12T02:52:03,42.805,6.029,0.036,0.002,0.043,100.0,107.0,100.0,13.3,1505.3,326.4,-0.7,1.8,2470.397,13.33,0.036,86.8
2020-10-12T02:55:03,42.805,6.029,0.05,0.006,0.007,102.0,107.0,100.0,13.4,1505.3,326.0,-0.7,1.9,2470.395,13.33,0.05,83.2
2020-10-12T02:58:03,42.805,6.029,0.017,0.006,0.016,104.0,105.0,101.0,13.4,1505.3,326.7,-0.7,1.8,2470.409,13.32,0.018,70.6
2020-10-12T03:04:03,42.805,6.029,0.033,-0.012,-0.01,102.0,107.0,100.0,13.4,1505.3,327.9,-0.7,1.8,2470.468,13.31,0.035,110.0
2020-10-12T03:07:03,42.805,6.029,0.033,0.007,0.023,100.0,106.0,100.0,13.4,1505.3,327.5,-0.8,1.8,2470.421,13.31,0.033,78.0
2020-10-12T03:10:03,42.805,6.029,-0.002,-0.024,-0.02,102.0,107.0,100.0,13.4,1505.3,323.3,-0.7,1.8,2470.419,13.32,0.024,184.8
2020-10-12T03:13:03,42.805,6.029,0.052,-0.023,-0.011,102.0,105.0,100.0,13.4,1505.3,326.5,-0.7,1.8,2470.425,13.32,0.056,113.9
2020-10-12T03:16:03,42.805,6.029,0.03,-0.01,-0.008,102.0,106.0,100.0,13.4,1505.3,325.6,-0.7,1.8,2470.441,13.32,0.031,108.4
2020-10-12T03:19:03,42.805,6.029,0.009,0.01,0.002,102.0,108.0,100.0,13.4,1505.3,325.7,-0.7,1.8,2470.411,13.32,0.013,42.0
2020-10-12T03:22:03,42.805,6.029,0.0,-0.01,-0.018,102.0,108.0,99.0,13.4,1505.3,323.2,-0.7,1.8,2470.423,13.32,0.01,180.0
2020-10-12T03:25:03,42.805,6.029,0.02,-0.018,-0.021,103.0,107.0,99.0,13.4,1505.3,324.7,-0.7,1.8,2470.4,13.32,0.026,132.0
2020-10-12T03:28:03,42.805,6.029,0.0,-0.033,-0.064,100.0,107.0,100.0,13.4,1505.3,325.1,-0.7,1.8,2470.382,13.32,0.033,180.0
2020-10-12T03:31:03,42.805,6.029,0.011,-0.003,-0.038,101.0,109.0,100.0,13.4,1505.3,328.4,-0.7,1.8,2470.407,13.32,0.011,105.3
2020-10-12T03:34:03,42.805,6.029,-0.006,-0.019,0.0,101.0,107.0,100.0,13.4,1505.3,324.4,-0.7,1.8,2470.379,13.33,0.019,197.5
2020-10-12T03:37:03,42.805,6.029,0.047,-0.01,0.011,102.0,109.0,101.0,13.3,1505.3,324.7,-0.7,1.8,2470.386,13.33,0.048,102.0
2020-10-12T03:40:03,42.805,6.029,0.04,0.0,0.011,102.0,106.0,100.0,13.4,1505.3,327.9,-0.7,1.8,2470.415,13.33,0.04,90.0
2020-10-12T03:43:03,42.805,6.029,0.018,0.01,-0.018,103.0,108.0,100.0,13.4,1505.3,324.8,-0.7,1.8,2470.394,13.33,0.02,60.9
2020-10-12T03:46:03,42.805,6.029,0.022,-0.017,-0.008,101.0,107.0,100.0,13.3,1505.3,326.3,-0.7,1.9,2470.417,13.33,0.027,127.7
2020-10-12T03:49:03,42.805,6.029,0.019,-0.009,0.008,102.0,106.0,99.0,13.4,1505.3,324.6,-0.7,1.9,2470.41,13.33,0.021,115.3
2020-10-12T03:52:03,42.805,6.029,-0.009,-0.02,-0.048,102.0,106.0,100.0,13.3,1505.3,324.9,-0.7,1.8,2470.401,13.33,0.021,204.2
2020-10-12T03:55:03,42.805,6.029,0.018,-0.007,-0.01,102.0,107.0,100.0,13.4,1505.3,327.0,-0.7,1.8,2470.415,13.33,0.019,111.2
2020-10-12T03:58:03,42.805,6.029,0.008,-0.012,-0.005,102.0,108.0,100.0,13.4,1505.3,325.6,-0.7,1.8,2470.401,13.33,0.014,146.3
2020-10-12T04:04:03,42.805,6.029,0.005,-0.018,-0.037,102.0,108.0,99.0,13.4,1505.3,326.3,-0.7,1.8,2470.436,13.31,0.018,164.5
2020-10-12T04:07:03,42.805,6.029,0.014,0.006,0.01,102.0,109.0,100.0,13.4,1505.3,324.7,-0.7,1.8,2470.414,13.31,0.015,66.8
2020-10-12T04:10:03,42.805,6.029,0.007,-0.018,-0.026,103.0,107.0,100.0,13.4,1505.3,326.0,-0.7,1.8,2470.427,13.32,0.019,158.8
2020-10-12T04:13:03,42.805,6.029,0.031,-0.016,-0.022,102.0,105.0,100.0,13.3,1505.3,323.9,-0.7,1.8,2470.452,13.32,0.034,117.3
2020-10-12T04:16:03,42.805,6.029,-0.005,-0.024,-0.053,101.0,109.0,101.0,13.4,1505.3,327.7,-0.7,1.8,2470.419,13.32,0.024,191.8
2020-10-12T04:19:03,42.805,6.029,0.019,-0.001,0.018,102.0,108.0,100.0,13.4,1505.3,325.4,-0.7,1.8,2470.427,13.32,0.019,93.0
2020-10-12T04:22:03,42.805,6.029,0.037,-0.006,0.008,103.0,107.0,100.0,13.4,1505.3,327.5,-0.7,1.9,2470.452,13.32,0.037,99.2
2020-10-12T04:25:03,42.805,6.029,0.02,-0.002,-0.005,101.0,109.0,100.0,13.4,1505.3,326.1,-0.7,1.8,2470.44,13.32,0.02,95.7
2020-10-12T04:28:03,42.805,6.029,0.023,-0.009,0.0,101.0,107.0,100.0,13.3,1505.3,326.9,-0.7,1.8,2470.383,13.32,0.024,111.4
2020-10-12T04:31:03,42.805,6.029,0.032,0.003,-0.009,104.0,108.0,99.0,13.4,1505.3,323.9,-0.7,1.8,2470.373,13.32,0.032,84.6
2020-10-12T04:34:03,42.805,6.029,0.021,-0.012,-0.001,103.0,106.0,99.0,13.3,1505.3,324.1,-0.7,1.8,2470.422,13.32,0.024,119.7
2020-10-12T04:37:03,42.805,6.029,0.017,-0.035,-0.033,102.0,106.0,100.0,13.3,1505.3,327.0,-0.7,1.8,2470.395,13.32,0.038,154.1
2020-10-12T04:40:03,42.805,6.029,-0.006,-0.018,-0.02,102.0,107.0,100.0,13.4,1505.3,325.8,-0.7,1.8,2470.424,13.32,0.018,198.4
2020-10-12T04:43:03,42.805,6.029,0.017,-0.034,-0.003,102.0,109.0,99.0,13.4,1505.3,324.4,-0.7,1.8,2470.391,13.32,0.038,153.4
2020-10-12T04:46:03,42.805,6.029,0.004,-0.014,0.011,102.0,105.0,100.0,13.4,1505.3,324.0,-0.7,1.8,2470.369,13.32,0.014,164.1
2020-10-12T04:49:03,42.805,6.029,0.038,-0.016,0.004,102.0,107.0,100.0,13.3,1505.3,323.6,-0.7,1.8,2470.396,13.32,0.041,112.8
2020-10-12T04:52:03,42.805,6.029,0.012,0.004,0.001,103.0,107.0,100.0,13.4,1505.3,326.4,-0.7,1.8,2470.383,13.32,0.012,71.6
2020-10-12T04:55:03,42.805,6.029,0.028,-0.013,0.012,102.0,108.0,100.0,13.4,1505.3,326.4,-0.7,1.8,2470.378,13.33,0.03,114.9
2020-10-12T04:58:03,42.805,6.029,0.039,-0.025,0.009,103.0,107.0,100.0,13.4,1505.3,326.4,-0.6,1.9,2470.369,13.32,0.046,122.7
2020-10-12T05:04:03,42.805,6.029,0.025,-0.003,0.018,101.0,106.0,100.0,13.4,1505.2,325.5,-0.7,1.8,2470.463,13.3,0.025,96.8
2020-10-12T05:07:03,42.805,6.029,0.041,-0.01,0.027,103.0,107.0,99.0,13.4,1505.3,324.9,-0.7,1.8,2470.395,13.31,0.042,103.7
2020-10-12T05:10:03,42.805,6.029,0.05,-0.027,0.024,102.0,107.0,99.0,13.4,1505.3,326.6,-0.7,1.8,2470.397,13.32,0.056,118.4
2020-10-12T05:13:03,42.805,6.029,0.05,-0.019,-0.004,102.0,107.0,101.0,13.4,1505.3,328.0,-0.7,1.8,2470.402,13.32,0.053,110.8
2020-10-12T05:16:03,42.805,6.029,0.0,-0.016,-0.031,101.0,107.0,101.0,13.4,1505.3,325.9,-0.7,1.8,2470.399,13.32,0.016,180.0
2020-10-12T05:19:03,42.805,6.029,0.048,-0.001,0.015,102.0,105.0,100.0,13.4,1505.3,326.5,-0.7,1.8,2470.407,13.32,0.048,91.2
2020-10-12T05:22:03,42.805,6.029,0.021,-0.002,0.003,102.0,105.0,100.0,13.3,1505.3,323.4,-0.7,1.8,2470.394,13.32,0.021,95.4
2020-10-12T05:25:03,42.805,6.029,0.038,-0.009,0.003,101.0,108.0,100.0,13.4,1505.3,326.4,-0.7,1.8,2470.385,13.32,0.039,103.3
2020-10-12T05:28:03,42.805,6.029,0.046,-0.017,0.023,102.0,107.0,100.0,13.3,1505.3,324.8,-0.7,1.8,2470.421,13.32,0.049,110.3
2020-10-12T05:31:03,42.805,6.029,0.058,-0.009,0.017,102.0,109.0,100.0,13.3,1505.3,326.9,-0.7,1.8,2470.393,13.32,0.058,98.8
2020-10-12T05:34:03,42.805,6.029,0.034,-0.01,0.027,102.0,107.0,100.0,13.4,1505.3,324.4,-0.7,1.8,2470.371,13.32,0.035,106.4
2020-10-12T05:37:03,42.805,6.029,0.025,-0.021,0.03,102.0,107.0,100.0,13.4,1505.3,324.9,-0.7,1.8,2470.404,13.32,0.032,130.0
2020-10-12T05:40:03,42.805,6.029,0.04,-0.021,0.016,103.0,106.0,100.0,13.3,1505.3,326.2,-0.7,1.8,2470.357,13.32,0.045,117.7
2020-10-12T05:43:03,42.805,6.029,0.052,-0.024,0.009,102.0,107.0,100.0,13.4,1505.3,328.3,-0.7,1.8,2470.409,13.32,0.057,114.8
2020-10-12T05:46:03,42.805,6.029,0.055,-0.014,0.002,102.0,106.0,100.0,13.4,1505.3,323.3,-0.7,1.8,2470.366,13.32,0.056,104.3
2020-10-12T05:49:03,42.805,6.029,0.041,-0.026,0.008,102.0,107.0,100.0,13.4,1505.3,323.7,-0.7,1.8,2470.363,13.32,0.048,122.4
2020-10-12T05:52:03,42.805,6.029,0.048,-0.007,0.02,102.0,107.0,100.0,13.4,1505.3,326.8,-0.7,1.8,2470.395,13.32,0.048,98.3
2020-10-12T05:55:03,42.805,6.029,0.053,-0.008,-0.008,102.0,106.0,101.0,13.4,1505.3,324.0,-0.7,1.8,2470.367,13.32,0.053,98.6
2020-10-12T05:58:03,42.805,6.029,0.032,-0.013,-0.017,103.0,107.0,100.0,13.3,1505.3,327.1,-0.7,1.8,2470.366,13.32,0.034,112.1
2020-10-12T06:04:03,42.805,6.029,0.035,-0.024,0.001,102.0,109.0,99.0,13.4,1505.3,327.0,-0.7,1.8,2470.411,13.31,0.042,124.4
2020-10-12T06:07:03,42.805,6.029,0.03,-0.009,0.012,102.0,107.0,100.0,13.3,1505.3,328.2,-0.7,1.8,2470.411,13.31,0.031,106.7
2020-10-12T06:10:03,42.805,6.029,0.02,-0.012,0.019,102.0,106.0,100.0,13.3,1505.3,327.9,-0.7,1.8,2470.404,13.32,0.023,121.0
2020-10-12T06:13:03,42.805,6.029,0.005,-0.009,0.004,103.0,107.0,100.0,13.4,1505.3,328.2,-0.7,1.8,2470.384,13.32,0.01,150.9
2020-10-12T06:16:03,42.805,6.029,0.009,-0.001,-0.009,102.0,107.0,100.0,13.3,1505.3,325.4,-0.7,1.8,2470.407,13.32,0.009,96.3
2020-10-12T06:19:03,42.805,6.029,0.014,-0.021,-0.013,102.0,107.0,99.0,13.4,1505.3,323.8,-0.7,1.8,2470.391,13.32,0.025,146.3
2020-10-12T06:22:03,42.805,6.029,0.013,-0.003,0.014,103.0,108.0,101.0,13.4,1505.3,325.7,-0.7,1.8,2470.342,13.32,0.013,103.0
2020-10-12T06:25:03,42.805,6.029,0.06,-0.011,0.059,102.0,106.0,98.0,13.4,1505.3,324.0,-0.7,1.8,2470.368,13.32,0.06,100.4
2020-10-12T06:28:03,42.805,6.029,0.022,-0.034,-0.001,102.0,106.0,99.0,13.4,1505.3,324.7,-0.7,1.8,2470.394,13.32,0.04,147.1
2020-10-12T06:31:03,42.805,6.029,0.022,-0.021,-0.005,101.0,105.0,100.0,13.4,1505.3,323.1,-0.7,1.8,2470.364,13.32,0.03,133.7
2020-10-12T06:34:03,42.805,6.029,-0.011,-0.025,-0.025,102.0,105.0,99.0,13.4,1505.3,327.7,-0.7,1.8,2470.364,13.33,0.027,203.7
2020-10-12T06:37:03,42.805,6.029,-0.006,-0.018,0.0,102.0,105.0,100.0,13.3,1505.3,325.9,-0.7,1.8,2470.368,13.33,0.018,198.4
2020-10-12T06:40:03,42.805,6.029,0.025,-0.02,0.018,102.0,105.0,100.0,13.4,1505.3,325.2,-0.7,1.8,2470.374,13.33,0.032,128.7
2020-10-12T06:43:03,42.805,6.029,0.008,-0.021,-0.033,101.0,107.0,99.0,13.4,1505.3,325.8,-0.7,1.8,2470.349,13.33,0.022,159.1
2020-10-12T06:46:03,42.805,6.029,0.045,-0.035,-0.031,101.0,105.0,100.0,13.4,1505.3,327.9,-0.7,1.8,2470.353,13.33,0.057,127.9
2020-10-12T06:49:03,42.805,6.029,0.007,-0.019,-0.003,103.0,105.0,100.0,13.4,1505.3,327.2,-0.7,1.9,2470.367,13.33,0.02,159.8
2020-10-12T06:52:03,42.805,6.029,0.026,-0.015,-0.007,103.0,105.0,99.0,13.4,1505.3,327.2,-0.7,1.8,2470.346,13.33,0.03,120.0
2020-10-12T06:55:03,42.805,6.029,0.03,-0.013,-0.008,102.0,105.0,99.0,13.3,1505.3,323.8,-0.7,1.8,2470.372,13.33,0.032,113.4
2020-10-12T06:58:03,42.805,6.029,0.032,-0.006,0.0,102.0,105.0,100.0,13.3,1505.3,324.7,-0.7,1.8,2470.359,13.33,0.032,100.6
2020-10-12T07:04:03,42.805,6.029,0.007,-0.021,-0.033,102.0,105.0,98.0,13.4,1505.3,326.3,-0.7,1.8,2470.385,13.31,0.022,161.6
2020-10-12T07:07:03,42.805,6.029,0.013,-0.012,-0.033,103.0,105.0,100.0,13.4,1505.3,326.1,-0.7,1.8,2470.358,13.31,0.017,132.7
2020-10-12T07:10:03,42.805,6.029,-0.021,-0.009,-0.055,101.0,105.0,100.0,13.4,1505.3,324.4,-0.7,1.8,2470.37,13.32,0.022,246.8
2020-10-12T07:13:03,42.805,6.029,0.053,-0.031,0.0,101.0,106.0,99.0,13.4,1505.3,325.4,-0.7,1.8,2470.37,13.32,0.061,120.3
2020-10-12T07:16:03,42.805,6.029,0.031,-0.023,-0.001,102.0,103.0,100.0,13.4,1505.3,327.5,-0.7,1.8,2470.324,13.32,0.038,126.6
2020-10-12T07:19:03,42.805,6.029,0.001,-0.028,-0.015,102.0,105.0,100.0,13.4,1505.3,323.2,-0.7,1.8,2470.398,13.32,0.028,178.0
2020-10-12T07:22:03,42.805,6.029,0.017,0.001,0.018,103.0,104.0,99.0,13.4,1505.3,325.9,-0.7,1.8,2470.366,13.32,0.017,86.6
2020-10-12T07:25:03,42.805,6.029,-0.009,-0.02,-0.035,101.0,106.0,100.0,13.4,1505.3,325.3,-0.7,1.8,2470.371,13.32,0.021,204.2
2020-10-12T07:28:03,42.805,6.029,0.008,-0.023,-0.023,104.0,105.0,99.0,13.3,1505.3,325.3,-0.7,1.9,2470.338,13.32,0.024,160.8
2020-10-12T07:31:03,42.805,6.029,-0.007,-0.021,-0.029,103.0,107.0,100.0,13.4,1505.3,327.8,-0.7,1.8,2470.324,13.33,0.022,198.4
2020-10-12T07:34:03,42.805,6.029,0.029,-0.008,0.004,102.0,105.0,101.0,13.4,1505.3,323.6,-0.7,1.9,2470.325,13.33,0.03,105.4
2020-10-12T07:37:03,42.805,6.029,0.008,-0.031,-0.029,100.0,107.0,100.0,13.4,1505.3,325.0,-0.7,1.9,2470.33,13.33,0.032,165.5
2020-10-12T07:40:03,42.805,6.029,0.019,-0.038,-0.035,102.0,106.0,100.0,13.4,1505.3,323.4,-0.7,1.8,2470.333,13.33,0.042,153.4
2020-10-12T07:43:03,42.805,6.029,0.005,-0.023,-0.024,104.0,107.0,100.0,13.4,1505.3,324.0,-0.7,1.9,2470.344,13.33,0.023,167.7
2020-10-12T07:46:03,42.805,6.029,0.01,-0.05,-0.061,102.0,106.0,101.0,13.4,1505.3,322.9,-0.7,1.9,2470.355,13.33,0.05,168.7
2020-10-12T07:49:03,42.805,6.029,0.029,-0.041,0.003,102.0,105.0,100.0,13.4,1505.3,326.5,-0.7,1.8,2470.345,13.33,0.05,144.7
2020-10-12T07:52:03,42.805,6.029,0.0,-0.036,-0.007,102.0,104.0,101.0,13.4,1505.3,327.2,-0.7,1.8,2470.316,13.33,0.036,180.0
2020-10-12T07:55:03,42.805,6.029,0.023,-0.023,-0.027,102.0,104.0,100.0,13.4,1505.3,323.2,-0.7,1.8,2470.293,13.32,0.032,135.0
2020-10-12T07:58:03,42.805,6.029,0.038,-0.043,-0.01,101.0,104.0,100.0,13.4,1505.3,324.8,-0.7,1.9,2470.358,13.32,0.057,138.5
2020-10-12T08:04:03,42.805,6.029,0.018,-0.039,-0.036,103.0,105.0,100.0,13.4,1505.2,326.0,-0.8,1.8,2470.386,13.3,0.042,155.2
2020-10-12T08:07:03,42.805,6.029,-0.011,-0.009,-0.012,102.0,105.0,100.0,13.4,1505.3,326.1,-0.7,1.8,2470.357,13.31,0.014,230.7
2020-10-12T08:10:03,42.805,6.029,0.002,-0.047,-0.014,102.0,105.0,100.0,13.3,1505.3,324.2,-0.7,1.8,2470.365,13.32,0.047,177.6
2020-10-12T08:13:03,42.805,6.029,0.038,-0.013,0.009,101.0,106.0,100.0,13.4,1505.3,324.3,-0.7,1.8,2470.32,13.32,0.04,108.9
2020-10-12T08:16:03,42.805,6.029,0.008,-0.021,-0.001,101.0,105.0,100.0,13.4,1505.3,323.1,-0.7,1.8,2470.378,13.32,0.022,159.1
2020-10-12T08:19:03,42.805,6.029,0.004,-0.031,-0.026,102.0,106.0,101.0,13.3,1505.3,326.1,-0.7,1.8,2470.338,13.32,0.031,172.7
2020-10-12T08:22:03,42.805,6.029,-0.003,-0.025,-0.017,102.0,107.0,100.0,13.3,1505.3,327.5,-0.7,1.8,2470.334,13.32,0.025,186.8
2020-10-12T08:25:03,42.805,6.029,-0.011,-0.014,-0.044,103.0,105.0,101.0,13.3,1505.3,323.9,-0.7,1.8,2470.338,13.32,0.017,218.2
2020-10-12T08:28:03,42.805,6.029,0.009,0.001,-0.012,102.0,107.0,99.0,13.4,1505.3,324.5,-0.7,1.9,2470.294,13.33,0.009,83.7
2020-10-12T08:31:03,42.805,6.029,-0.025,-0.02,-0.06,102.0,105.0,101.0,13.4,1505.3,327.2,-0.6,1.8,2470.378,13.33,0.032,231.3
2020-10-12T08:34:03,42.805,6.029,-0.002,-0.026,-0.032,101.0,106.0,100.0,13.4,1505.3,325.2,-0.7,1.8,2470.312,13.33,0.026,184.4
2020-10-12T08:37:03,42.805,6.029,0.0,-0.013,-0.015,103.0,106.0,100.0,13.4,1505.3,323.6,-0.7,1.8,2470.317,13.33,0.013,180.0
2020-10-12T08:40:03,42.805,6.029,-0.01,-0.033,-0.018,103.0,105.0,99.0,13.4,1505.3,324.7,-0.8,1.8,2470.287,13.33,0.034,196.9
2020-10-12T08:43:03,42.805,6.029,0.006,-0.026,-0.012,103.0,107.0,99.0,13.4,1505.3,326.4,-0.7,1.8,2470.304,13.33,0.026,167.0
2020-10-12T08:46:03,42.805,6.029,0.039,-0.026,0.0,103.0,106.0,100.0,13.4,1505.3,326.7,-0.7,1.9,2470.327,13.33,0.046,123.7
2020-10-12T08:49:03,42.805,6.029,0.005,-0.017,-0.026,102.0,106.0,101.0,13.4,1505.3,324.5,-0.7,1.8,2470.309,13.33,0.017,163.6
2020-10-12T08:52:03,42.805,6.029,0.011,-0.008,0.021,102.0,106.0,100.0,13.4,1505.3,323.3,-0.7,1.8,2470.347,13.33,0.013,126.0
2020-10-12T08:55:03,42.805,6.029,-0.029,-0.022,-0.044,103.0,108.0,100.0,13.4,1505.3,324.0,-0.7,1.8,2470.333,13.33,0.036,232.8
2020-10-12T08:58:03,42.805,6.029,0.014,-0.027,0.006,101.0,107.0,102.0,13.4,1505.3,322.6,-0.7,1.8,2470.329,13.33,0.03,152.6
2020-10-12T09:04:03,42.805,6.029,-0.01,-0.035,-0.024,103.0,107.0,100.0,13.4,1505.3,325.3,-0.7,1.9,2470.343,13.31,0.036,195.9
2020-10-12T09:07:03,42.805,6.029,-0.008,-0.015,0.033,100.0,109.0,100.0,13.4,1505.3,324.5,-0.7,1.8,2470.383,13.32,0.017,208.1
2020-10-12T09:10:03,42.805,6.029,0.019,-0.026,0.0,103.0,107.0,100.0,13.4,1505.3,323.3,-0.7,1.8,2470.325,13.32,0.032,143.8
2020-10-12T09:13:03,42.805,6.029,-0.023,-0.039,-0.034,101.0,107.0,101.0,13.3,1505.3,324.3,-0.7,1.8,2470.329,13.32,0.045,210.5
2020-10-12T09:16:03,42.805,6.029,-0.017,-0.025,-0.02,101.0,107.0,101.0,13.3,1505.3,326.3,-0.7,1.8,2470.374,13.33,0.03,214.2
2020-10-12T09:19:03,42.805,6.029,-0.026,-0.005,-0.003,103.0,107.0,99.0,13.3,1505.3,324.9,-0.7,1.8,2470.329,13.33,0.026,259.1
2020-10-12T09:22:03,42.805,6.029,-0.017,-0.014,-0.025,103.0,109.0,99.0,13.4,1505.3,326.1,-0.7,1.8,2470.307,13.33,0.022,230.5
2020-10-12T09:25:03,42.805,6.029,-0.004,-0.009,0.0,102.0,107.0,101.0,13.3,1505.3,324.7,-0.7,1.8,2470.352,13.33,0.009,204.0
2020-10-12T09:28:03,42.805,6.029,-0.016,-0.049,-0.043,103.0,107.0,100.0,13.4,1505.3,326.8,-0.7,1.8,2470.326,13.33,0.051,198.1
2020-10-12T09:31:03,42.805,6.029,0.02,-0.013,0.014,102.0,108.0,100.0,13.3,1505.3,328.5,-0.7,1.8,2470.313,13.33,0.023,123.0
2020-10-12T09:34:03,42.805,6.029,-0.045,-0.034,-0.023,102.0,108.0,101.0,13.4,1505.3,327.6,-0.7,1.8,2470.299,13.33,0.056,232.9
2020-10-12T09:37:03,42.805,6.029,-0.057,-0.032,-0.057,101.0,107.0,100.0,13.4,1505.3,327.2,-0.7,1.8,2470.338,13.33,0.065,240.7
2020-10-12T09:40:03,42.805,6.029,-0.038,-0.013,-0.068,101.0,106.0,100.0,13.4,1505.3,327.7,-0.7,1.8,2470.327,13.33,0.04,251.1
2020-10-12T09:43:03,42.805,6.029,-0.008,-0.03,-0.026,104.0,108.0,100.0,13.4,1505.3,327.3,-0.7,1.8,2470.338,13.33,0.031,194.9
2020-10-12T09:46:03,42.805,6.029,-0.049,-0.015,-0.037,103.0,107.0,101.0,13.4,1505.3,325.1,-0.7,1.8,2470.317,13.33,0.051,253.0
2020-10-12T09:49:03,42.805,6.029,-0.004,0.004,-0.011,102.0,106.0,101.0,13.4,1505.3,326.3,-0.7,1.8,2470.316,13.33,0.005,315.0
2020-10-12T09:55:03,42.805,6.029,-0.006,-0.011,0.003,104.0,107.0,100.0,13.4,1505.3,325.8,-0.7,1.8,2470.334,13.31,0.012,208.6
2020-10-12T09:58:03,42.805,6.029,-0.064,-0.017,-0.082,102.0,107.0,100.0,13.3,1505.3,326.6,-0.7,1.8,2470.319,13.32,0.066,255.1
2020-10-12T10:04:03,42.805,6.029,0.0,-0.029,-0.015,103.0,106.0,102.0,13.4,1505.3,324.4,-0.7,1.8,2470.378,13.31,0.028,180.0
2020-10-12T10:07:03,42.805,6.029,-0.008,-0.025,-0.003,104.0,106.0,101.0,13.4,1505.3,325.5,-0.7,1.8,2470.382,13.31,0.026,197.7